EW6663 Weather Reports


time (UTC)temp
F
wind
direction
speed
knots
gust
knots
rain 1hr
in
rain 24hr
in
rain mn
in
humidity
%
barometer
mb
20260505051507 52 326 7.8 13.9 0.00 0.00 0.00 45 1014.5
20260505041609 53 306 2.6 7.0 0.00 0.00 0.00 45 1014.2
20260505040040 53 327 1.7 8.7 0.00 0.00 0.00 45 1014.1
20260505034524 53 355 0.0 7.8 0.00 0.00 0.00 44 1014.0
20260505033010 54 338 0.9 7.0 0.00 0.00 0.00 44 1013.9
20260505031602 55 320 2.6 6.1 0.00 0.00 0.00 43 1013.8
20260505030042 56 313 2.6 7.0 0.00 0.00 0.00 43 1013.5
20260505024613 57 328 0.9 10.4 0.00 0.00 0.00 42 1013.4
20260505023012 58 309 3.5 7.0 0.00 0.00 0.00 41 1013.2
20260505021534 59 313 1.7 8.7 0.00 0.00 0.00 41 1013.1
20260505020008 60 49 5.2 11.3 0.00 0.00 0.00 41 1013.0
20260505014538 60 337 2.6 7.8 0.00 0.00 0.00 41 1012.8
20260505013102 61 327 3.5 7.0 0.00 0.00 0.00 40 1012.8
20260505011547 62 322 5.2 9.6 0.00 0.00 0.00 39 1012.8
20260505010009 63 11 6.1 13.0 0.00 0.00 0.00 38 1012.7
20260505004555 64 19 3.5 8.7 0.00 0.00 0.00 38 1012.7
20260505003037 65 338 5.2 9.6 0.00 0.00 0.00 36 1012.6
20260505001512 64 9 3.5 7.0 0.00 0.00 0.00 39 1012.6
20260505000025 64 335 2.6 9.6 0.00 0.00 0.00 38 1012.5
20260504234559 65 336 7.0 11.3 0.00 0.00 0.00 37 1012.5
20260504233039 65 318 8.7 13.9 0.00 0.00 0.00 37 1012.4
20260504231509 65 334 8.7 15.6 0.00 0.00 0.00 38 1012.4
20260504230040 65 329 8.7 14.8 0.00 0.00 0.00 37 1012.3
20260504224512 66 5 6.1 18.2 0.00 0.00 0.00 37 1012.3
20260504223048 66 319 9.6 16.5 0.00 0.00 0.00 36 1012.2
20260504221522 66 332 10.4 15.6 0.00 0.00 0.00 34 1012.1
20260504220036 67 346 8.7 15.6 0.00 0.00 0.00 35 1012.1
20260504214537 67 329 8.7 13.0 0.00 0.00 0.00 35 1012.3
20260504213042 66 318 7.0 14.8 0.00 0.00 0.00 37 1012.3
20260504211515 66 315 8.7 13.0 0.00 0.00 0.00 36 1012.3
20260504210028 66 316 10.4 14.8 0.00 0.00 0.00 36 1012.4
20260504204553 68 323 7.8 14.8 0.00 0.00 0.00 34 1012.5
20260504203053 69 5 4.3 10.4 0.00 0.00 0.00 36 1012.6
20260504201612 68 333 3.5 7.0 0.00 0.00 0.00 37 1012.6
20260504200026 69 316 4.3 11.3 0.00 0.00 0.00 36 1012.7
20260504194552 69 317 6.1 11.3 0.00 0.00 0.00 36 1012.7
20260504193019 69 317 6.1 10.4 0.00 0.00 0.00 36 1012.9
20260504191548 69 30 0.0 3.5 0.00 0.00 0.00 38 1013.1
20260504190002 68 42 0.0 2.6 0.00 0.00 0.00 38 1013.2
20260504184549 64 41 0.0 1.7 0.00 0.00 0.00 43 1013.3
20260504183016 62 41 0.0 2.6 0.00 0.00 0.00 51 1013.4
20260504181533 62 41 0.9 3.5 0.00 0.00 0.00 47 1013.5
20260504180004 64 26 0.0 1.7 0.00 0.00 0.00 46 1013.5
20260504174530 64 21 0.0 0.9 0.00 0.00 0.00 39 1013.7
20260504171510 61 20 0.0 0.9 0.00 0.00 0.00 43 1013.7
20260504150144 57 311 7.8 13.9 0.00 0.00 0.00 47 1014.1
20260504081602 50 175 0.0 5.2 0.00 0.00 0.00 67 1011.1
20260504070138 47 164 0.0 0.0 0.00 0.00 0.00 71 1010.6